Location: ??????
(42.0089°N, 44.3281°E)
Time: 18:03:58
(UTC+00:00)

USA 267 - Pass Details

Date: 02 June 2022
Orbit: 1101 x 1106 km, 123.0° (Epoch: 28 June)

Event Time Altitude Azimuth Distance (km) Brightness Sun altitude
Rises 19:06:58 0° 68° (ENE) 3,920 6.1 -20.6°
Reaches altitude 10° 19:09:56 10° 56° (NE) 2,963 5.6 -20.8°
Maximum altitude 19:14:56 24° 6° (N) 2,102 5.3 -21.2°
Drops below altitude 10° 19:19:55 10° 315° (NW) 2,966 6.5 -21.6°
Sets 19:22:53 0° 303° (WNW) 3,924 7.1 -21.9°
